Accueil
METAR-TAF:

METAR-TAF

Aéroports :

Chandler Regional Airport

Chandler, Oklahoma, États-Unis

latitude: 35-43-26N, longitude: 096-49-13W, altitude: 300 m

Observation

Le bulletin a été fait il y a 21 minutes, à 18:55 UTC
Vent 6 kt de sud
Température 28°C
Humidité 84%
Pression 1016 hPa
Visibilité: 16.1 km
Ciel clair

METAR: KCQB 151855Z AUTO 17006KT 10SM CLR 28/25 A3001 RMK AO2 T02760247

Heure: 14:16 (19:16 UTC)


TAF: absent

Observations et prévisions météorologiques de plus de 4000 aéroports (messages METAR et TAF).

Les stations disponibles sont représentées par des disques jaunes et rouges sur la carte.

Passer la souris dessus pour voir le nom de la station.

Cliquer dessus pour voir les observations et prévisions météorologiques.

Pour changer de carte: cliquez sur les boutons verts avec une croix noire pour zoomer, sur le bouton vert avec un tiret pour effectuer un zoom arrière, ou sur les flèches vertes pour les cartes adjacentes.


METAR-TAF: